Regional Weather Roundup
Issued by NWS Albany, NY

Home | Current Version | Previous Version | Graphics & Text | Print | Product List | Glossary Off
Versions: 1 2 3 4 5 6 7 8 9 10 11 12 13 14 15 16 17 18 19 20 21 22 23 24 25 26 27

000
ASUS41 KALY 272310
RWRALY

NEW YORK STATE HOURLY WEATHER ROUNDUP
NATIONAL WEATHER SERVICE ALBANY NY
700 PM EDT WED APR 27 2016

NOTE: "FAIR" INDICATES FEW OR NO CLOUDS BELOW 12,000 FEET WITH NO
SIGNIFICANT WEATHER AND/OR NO OBSTRUCTIONS TO VISIBILITY.

NYZ032-033-038>043-046>054-057>066-NYZ062>081-082-084-280000-
EAST


CITY           SKY/WX    TMP DP  RH WIND       PRES   REMARKS
ALBANY         PTCLDY    56  21  25 NW10      29.84F
GLENS FALLS    CLEAR     57  23  26 SW9G21    29.80R
POUGHKEEPSIE   CLEAR     66  32  28 SW9       29.80F
MONTGOMERY     CLEAR     64  26  23 W7        29.81F
WHITE PLAINS   CLEAR     54  42  64 S9        29.85S
ISLIP          PTCLDY    50  38  63 S12       29.88F
NEW YORK CITY  PTCLDY    55  43  63 S15       29.87S
CENTRAL PARK   CLEAR     55  41  59 S9        29.89S
$$

NYZ005>009-017-018-044>046-055-056-280000-
CENTRAL


CITY           SKY/WX    TMP DP  RH WIND       PRES   REMARKS
FULTON         SUNNY     49  18  29 W12       29.94S
SYRACUSE       MOSUNNY   49  15  25 NW14      29.92S
ROME           CLEAR     48  19  31 NW16      29.91R
ELMIRA         SUNNY     56  28  34 NE7       29.88S
BINGHAMTON     CLEAR     52  24  33 NW9       29.87F
MONTICELLO     CLEAR     57  27  30 W12G17    29.85F
$$

NYZ026>034-041>043-087-280000-
NORTH


CITY           SKY/WX    TMP DP  RH WIND       PRES   REMARKS
WATERTOWN      SUNNY     44  22  41 SW10      29.92F
FORT DRUM      NOT AVBL
MASSENA        PTCLDY    46  10  23 NW12      29.91R
SARANAC LAKE   CLEAR     42  10  27 W8        29.83R
PLATTSBURGH    CLOUDY    48  10  21 NW12      29.87R
$$

NYZ001>004-010>016-019>021-085-280000-
WEST


CITY           SKY/WX    TMP DP  RH WIND       PRES   REMARKS
NIAGARA FALLS  MOSUNNY   54  26  34 NW7       29.93F
BUFFALO        MOSUNNY   53  24  32 NW9       29.94S
DUNKIRK        SUNNY     50  22  33 N3        29.95S
JAMESTOWN      SUNNY     52  18  25 NW8       29.91F
WELLSVILLE     SUNNY     55  26  32 N9        29.90S
ROCHESTER      PTSUNNY   52  20  28 NW13      29.94S
PENN YAN       SUNNY     54  25  32 NW9       29.91R
$$

             KEY
       WCI = WIND CHILL INDEX
       VSB = VISIBILITY
       HX  = HEAT INDEX
$$




USA.gov is the U.S. government's official web portal to all federal, state and local government web resources and services.